Precipitable_Water
0.61 0.57 0.52 0.47 0.45 0.46 0.46 0.45 0.44 0.47 0.50 0.46 0.46 0.48 0.52 0.54 0.52 0.46 0.29 0.43 0.43 0.75 0.89 0.94 0.92 1.00 1.11 0.96 1.08 1.12 0.76 0.64 0.66 0.71 0.75 0.91 0.74 0.95 1.00 0.83 0.91 1.02 1.00 1.16 1.37
0.57 0.58 0.57 0.53 0.46 0.43 0.43 0.44 0.44 0.45 0.50 0.50 0.47 0.48 0.51 0.56 0.42 0.29 0.34 0.38 0.49 0.67 0.62 0.64 0.66 0.78 0.68 0.69 0.83 0.90 0.76 0.68 0.78 0.83 0.77 0.86 0.85 0.81 0.79 0.75 0.76 0.86 1.08 1.23 1.32
0.54 0.53 0.54 0.55 0.53 0.46 0.43 0.42 0.42 0.43 0.46 0.51 0.50 0.49 0.49 0.54 0.29 0.21 0.46 0.39 0.50 0.60 0.55 0.57 0.59 0.56 0.53 0.64 0.71 0.83 0.70 0.77 0.75 0.82 0.89 0.85 0.92 0.90 0.72 0.61 0.72 0.72 0.88 1.07 1.15
0.55 0.54 0.51 0.50 0.52 0.51 0.48 0.44 0.42 0.42 0.43 0.46 0.51 0.52 0.51 0.43 0.14 0.27 0.52 0.43 0.40 0.54 0.45 0.48 0.50 0.48 0.49 0.50 0.60 0.60 0.74 0.79 0.77 0.84 0.85 0.82 0.91 0.82 0.74 0.67 0.86 0.92 0.99 1.03 1.05
0.55 0.55 0.53 0.51 0.49 0.49 0.50 0.49 0.44 0.42 0.43 0.43 0.49 0.53 0.43 0.23 0.19 0.36 0.41 0.50 0.49 0.44 0.37 0.42 0.45 0.46 0.46 0.51 0.55 0.57 0.60 0.67 0.70 0.75 0.82 0.84 0.78 0.82 0.76 0.85 0.95 0.95 1.00 0.95 1.01
0.54 0.53 0.52 0.52 0.52 0.48 0.46 0.48 0.49 0.46 0.44 0.46 0.48 0.53 0.34 0.15 0.32 0.39 0.44 0.49 0.47 0.38 0.38 0.42 0.44 0.49 0.47 0.50 0.55 0.57 0.56 0.61 0.68 0.72 0.78 0.76 0.79 0.78 0.82 0.98 0.89 0.87 0.87 0.95 0.99
0.57 0.55 0.52 0.51 0.49 0.46 0.44 0.43 0.46 0.49 0.50 0.52 0.55 0.53 0.32 0.18 0.33 0.39 0.39 0.38 0.46 0.36 0.30 0.42 0.47 0.47 0.49 0.48 0.56 0.63 0.56 0.67 0.76 0.72 0.73 0.81 0.69 0.68 0.84 0.96 0.84 0.78 0.86 0.93 0.97
0.52 0.54 0.54 0.53 0.50 0.46 0.41 0.41 0.42 0.46 0.56 0.64 0.66 0.58 0.26 0.38 0.46 0.47 0.40 0.34 0.41 0.37 0.34 0.40 0.50 0.47 0.46 0.53 0.58 0.58 0.61 0.52 0.73 0.77 0.81 0.75 0.54 0.85 0.95 0.85 0.78 0.78 0.79 0.86 0.94
0.49 0.48 0.48 0.49 0.50 0.48 0.43 0.41 0.44 0.52 0.61 0.69 0.61 0.51 0.27 0.46 0.39 0.45 0.44 0.27 0.32 0.36 0.37 0.39 0.41 0.44 0.46 0.43 0.45 0.56 0.44 0.55 0.57 0.82 0.80 0.74 0.63 0.85 1.03 0.92 0.84 0.78 0.76 0.80 0.89
0.48 0.46 0.45 0.45 0.46 0.45 0.42 0.46 0.53 0.59 0.66 0.73 0.69 0.41 0.39 0.30 0.40 0.41 0.45 0.33 0.28 0.28 0.28 0.32 0.34 0.34 0.40 0.40 0.30 0.41 0.46 0.54 0.51 0.72 0.82 0.75 0.70 0.87 0.98 0.92 0.80 0.79 0.80 0.79 0.83
0.47 0.46 0.45 0.41 0.42 0.44 0.42 0.38 0.30 0.26 0.36 0.26 0.28 0.28 0.30 0.39 0.41 0.38 0.41 0.36 0.28 0.24 0.20 0.26 0.24 0.26 0.33 0.40 0.43 0.45 0.50 0.52 0.64 0.75 0.72 0.74 0.74 0.83 0.96 0.96 0.89 0.80 0.79 0.78 0.77
0.46 0.44 0.44 0.40 0.39 0.43 0.38 0.23 0.29 0.29 0.18 0.23 0.23 0.25 0.29 0.33 0.24 0.24 0.39 0.29 0.26 0.18 0.18 0.19 0.19 0.32 0.38 0.41 0.40 0.44 0.48 0.52 0.66 0.78 0.74 0.74 0.70 0.81 0.93 0.96 0.95 0.89 0.86 0.78 0.85
0.47 0.45 0.45 0.40 0.38 0.41 0.27 0.27 0.40 0.31 0.19 0.18 0.24 0.25 0.34 0.35 0.24 0.20 0.27 0.27 0.25 0.20 0.18 0.15 0.21 0.30 0.35 0.36 0.37 0.38 0.39 0.49 0.54 0.71 0.78 0.72 0.65 0.72 0.87 1.00 1.04 0.98 0.92 0.93 0.91
0.50 0.46 0.46 0.41 0.27 0.28 0.26 0.35 0.34 0.32 0.18 0.17 0.21 0.30 0.37 0.37 0.23 0.30 0.28 0.27 0.25 0.20 0.20 0.19 0.22 0.27 0.30 0.34 0.38 0.32 0.39 0.46 0.55 0.60 0.50 0.71 0.43 0.61 0.75 0.83 0.90 0.92 0.90 0.89 0.92
0.54 0.47 0.48 0.47 0.32 0.24 0.25 0.33 0.35 0.35 0.10 0.20 0.24 0.39 0.35 0.29 0.27 0.22 0.30 0.29 0.24 0.21 0.21 0.17 0.17 0.24 0.26 0.30 0.40 0.38 0.44 0.43 0.51 0.58 0.50 0.49 0.45 0.49 0.67 0.65 0.75 0.84 0.88 0.90 0.92
0.54 0.49 0.53 0.45 0.42 0.31 0.34 0.34 0.35 0.20 0.11 0.18 0.28 0.26 0.25 0.27 0.28 0.30 0.23 0.32 0.35 0.25 0.23 0.21 0.21 0.22 0.28 0.36 0.40 0.46 0.43 0.42 0.48 0.53 0.36 0.38 0.39 0.37 0.46 0.46 0.53 0.76 0.89 0.89 0.95
0.57 0.52 0.48 0.51 0.30 0.40 0.35 0.25 0.19 0.15 0.22 0.18 0.22 0.27 0.25 0.20 0.26 0.25 0.21 0.23 0.23 0.21 0.20 0.22 0.19 0.23 0.25 0.31 0.40 0.42 0.39 0.31 0.28 0.33 0.29 0.38 0.37 0.35 0.46 0.50 0.52 0.64 0.78 0.91 0.96
0.58 0.52 0.49 0.48 0.49 0.48 0.30 0.20 0.16 0.19 0.18 0.25 0.25 0.27 0.22 0.22 0.25 0.26 0.22 0.20 0.29 0.29 0.23 0.18 0.14 0.20 0.25 0.27 0.33 0.37 0.36 0.31 0.25 0.25 0.29 0.40 0.29 0.35 0.48 0.51 0.56 0.67 0.79 0.93 0.98
0.60 0.52 0.48 0.50 0.61 0.52 0.26 0.18 0.18 0.20 0.27 0.25 0.24 0.20 0.19 0.23 0.23 0.24 0.23 0.20 0.26 0.32 0.23 0.20 0.17 0.22 0.24 0.31 0.34 0.36 0.33 0.39 0.33 0.35 0.28 0.32 0.36 0.42 0.46 0.46 0.51 0.57 0.70 0.78 0.88
0.57 0.51 0.44 0.66 0.72 0.51 0.27 0.20 0.20 0.25 0.28 0.26 0.20 0.23 0.19 0.23 0.21 0.22 0.24 0.29 0.30 0.37 0.38 0.25 0.15 0.17 0.23 0.29 0.35 0.33 0.39 0.32 0.32 0.25 0.25 0.29 0.28 0.27 0.36 0.39 0.44 0.51 0.55 0.67 0.80
0.56 0.42 0.50 0.74 0.64 0.42 0.28 0.24 0.22 0.24 0.25 0.21 0.21 0.23 0.24 0.22 0.24 0.22 0.24 0.29 0.30 0.34 0.40 0.36 0.23 0.14 0.19 0.21 0.24 0.31 0.30 0.35 0.35 0.30 0.24 0.24 0.26 0.37 0.35 0.37 0.39 0.44 0.48 0.58 0.73
0.55 0.38 0.56 0.68 0.42 0.39 0.31 0.30 0.29 0.25 0.24 0.22 0.24 0.24 0.22 0.23 0.21 0.21 0.22 0.30 0.37 0.32 0.29 0.37 0.33 0.23 0.16 0.21 0.21 0.28 0.31 0.31 0.28 0.25 0.27 0.27 0.27 0.37 0.38 0.39 0.44 0.40 0.46 0.62 0.72
0.45 0.43 0.52 0.57 0.35 0.35 0.38 0.36 0.34 0.31 0.29 0.27 0.23 0.24 0.24 0.21 0.20 0.22 0.24 0.33 0.39 0.36 0.35 0.35 0.29 0.24 0.23 0.24 0.23 0.19 0.22 0.30 0.33 0.33 0.27 0.23 0.25 0.39 0.40 0.41 0.42 0.39 0.49 0.61 0.70
0.44 0.32 0.42 0.56 0.50 0.44 0.41 0.37 0.35 0.41 0.35 0.33 0.31 0.31 0.29 0.25 0.30 0.26 0.26 0.34 0.47 0.50 0.53 0.51 0.39 0.31 0.22 0.20 0.20 0.19 0.20 0.22 0.26 0.25 0.25 0.25 0.26 0.31 0.35 0.38 0.39 0.40 0.47 0.55 0.72
0.44 0.35 0.49 0.38 0.47 0.51 0.49 0.42 0.36 0.34 0.42 0.42 0.36 0.32 0.30 0.25 0.26 0.25 0.28 0.29 0.44 0.48 0.64 0.53 0.37 0.37 0.32 0.29 0.25 0.20 0.19 0.21 0.21 0.20 0.22 0.23 0.24 0.27 0.33 0.36 0.38 0.41 0.52 0.53 0.69
0.43 0.43 0.46 0.39 0.41 0.40 0.45 0.42 0.38 0.41 0.40 0.36 0.36 0.38 0.37 0.32 0.32 0.30 0.31 0.30 0.36 0.52 0.56 0.60 0.44 0.42 0.31 0.37 0.30 0.19 0.21 0.22 0.24 0.24 0.25 0.25 0.26 0.32 0.37 0.41 0.41 0.45 0.54 0.53 0.63
0.56 0.52 0.45 0.37 0.33 0.33 0.35 0.37 0.40 0.44 0.42 0.44 0.42 0.38 0.34 0.37 0.43 0.45 0.44 0.44 0.47 0.48 0.56 0.59 0.53 0.49 0.31 0.31 0.27 0.24 0.20 0.23 0.25 0.30 0.27 0.24 0.28 0.33 0.30 0.37 0.42 0.47 0.52 0.57 0.59
Wind_Speed
14 15 15 15 16 16 16 16 16 16 15 15 14 13 13 13 13 12 14 15 14 16 14 12 10 8 7 5 5 6 4 4 5 5 6 9 8 7 8 9 8 10 8 13 18
16 16 16 16 16 16 16 17 17 17 16 15 15 14 13 13 12 13 13 16 16 18 17 16 13 11 8 5 6 6 3 3 2 4 6 9 7 8 7 9 7 8 9 17 18
17 17 17 17 17 17 17 17 17 17 17 16 15 15 14 12 11 8 6 10 16 19 19 18 15 13 10 8 8 6 6 3 1 4 8 9 7 7 7 8 8 10 13 18 18
18 18 18 18 18 18 18 18 17 17 17 17 16 15 14 11 9 6 7 9 12 20 19 19 17 15 12 10 9 8 8 6 3 5 9 10 9 7 8 6 8 10 14 16 17
19 19 19 19 19 19 19 19 19 18 17 17 17 16 13 12 14 13 12 11 14 19 23 22 21 16 14 11 10 10 9 8 7 8 9 10 10 7 8 6 7 12 15 16 16
20 20 20 20 20 20 20 20 20 19 19 18 16 15 14 16 12 11 11 11 14 19 22 24 21 18 14 13 12 8 8 7 8 10 10 11 8 7 7 7 10 13 16 16 16
21 21 21 21 21 22 21 21 21 20 19 17 16 14 16 20 16 16 15 15 16 18 22 24 19 19 15 13 11 9 6 5 10 12 9 12 7 9 7 9 11 13 15 15 15
22 22 23 23 23 23 23 22 22 21 18 16 14 15 16 17 17 17 17 16 16 18 21 24 19 17 16 13 10 10 8 9 11 14 11 12 8 9 9 11 12 13 15 15 15
23 24 24 24 24 24 24 24 22 18 15 14 15 15 16 11 14 15 17 18 18 19 20 23 22 19 17 15 12 12 12 12 13 14 11 13 6 7 10 10 12 14 14 15 15
24 24 24 25 25 25 25 22 18 17 16 16 16 14 15 12 13 15 18 20 19 21 21 21 21 21 19 19 18 16 13 14 15 15 13 13 9 6 9 10 12 14 14 15 16
25 25 25 25 25 25 22 18 17 16 16 17 18 19 20 19 18 17 19 21 23 23 24 24 23 26 25 23 18 17 18 18 15 15 15 14 11 8 8 10 11 12 14 15 16
26 26 26 26 26 23 19 19 17 18 21 22 25 26 25 22 20 24 23 24 26 28 25 24 28 25 26 24 20 19 21 20 14 15 15 13 14 12 13 13 12 12 14 16 16
27 26 26 26 25 19 21 17 17 19 19 18 17 15 13 13 17 24 25 26 27 30 29 30 23 26 26 26 23 21 22 21 20 16 13 12 15 14 15 15 15 14 13 16 17
28 27 27 27 19 21 18 17 19 18 18 15 12 12 12 12 13 19 27 24 26 32 30 30 29 29 28 28 26 25 22 21 22 18 18 16 15 14 17 17 19 18 17 16 17
30 29 27 25 24 21 19 20 19 15 15 10 11 10 10 13 13 13 22 25 28 28 31 29 30 31 33 31 27 22 20 21 21 22 17 16 14 16 14 18 22 22 21 20 19
32 32 29 24 24 23 21 20 16 16 17 13 12 13 11 13 13 10 18 22 25 28 30 34 26 33 31 31 30 23 18 15 16 20 21 21 19 17 14 16 21 22 23 22 21
35 34 32 28 24 23 22 19 18 19 15 15 13 13 16 13 14 15 18 23 25 29 33 34 36 30 30 33 33 30 25 19 19 20 20 19 20 21 16 18 18 18 22 23 23
36 35 30 29 27 27 23 21 25 21 24 17 16 17 17 14 15 18 18 22 27 28 28 33 34 39 35 36 33 35 33 25 24 20 20 17 19 16 19 19 17 18 18 20 24
37 32 30 27 27 26 25 28 26 26 21 19 18 20 20 17 16 16 19 23 25 30 29 28 35 31 36 33 35 32 34 32 29 18 18 18 18 19 19 16 15 18 18 19 20
35 32 30 28 27 26 28 33 29 27 22 22 23 20 18 17 16 15 18 18 21 26 30 28 25 38 33 38 36 34 31 30 27 31 29 22 19 18 15 17 17 17 18 20 21
34 31 28 28 26 28 31 31 32 31 28 27 27 24 21 19 18 17 16 17 18 23 28 29 29 26 33 41 44 36 34 29 27 28 29 27 26 21 22 21 19 19 20 22 21
34 32 29 28 29 29 31 30 30 28 32 32 26 25 25 23 23 21 20 18 15 16 21 27 25 29 36 27 39 44 42 40 35 30 26 26 25 15 18 20 19 18 18 19 21
35 34 32 32 31 32 31 31 31 30 29 27 30 29 26 24 23 24 22 20 21 15 18 20 23 27 31 35 34 35 43 44 40 36 37 32 28 21 21 21 20 19 18 17 18
32 30 29 29 31 30 30 31 31 29 31 30 28 26 25 25 25 22 19 18 15 17 18 20 22 26 31 35 35 34 33 41 43 39 36 36 33 25 24 23 23 21 20 17 20
31 29 28 27 27 28 29 29 30 29 28 27 28 31 28 26 28 30 28 26 24 21 16 17 21 28 33 35 38 39 37 35 38 45 38 36 34 30 27 26 25 24 21 19 22
31 30 29 30 30 29 28 28 28 28 29 30 29 28 27 27 28 27 25 27 25 19 20 17 16 17 27 32 34 40 40 35 36 38 36 31 30 28 25 24 23 23 22 21 22
27 28 28 28 26 26 26 26 26 25 29 32 29 28 29 27 25 27 29 28 26 21 21 18 15 14 19 22 27 35 39 37 33 34 34 33 29 24 25 25 26 24 23 24 23
Wind_Direction
322 322 320 316 313 309 305 304 303 303 306 305 306 300 296 295 288 267 250 239 230 212 202 194 190 183 179 167 162 153 126 147 147 156 130 134 128 124 123 128 136 150 144 157 159
318 318 318 317 316 314 310 304 301 299 299 301 302 301 295 294 285 270 259 236 222 208 203 197 197 192 190 194 183 180 177 157 163 164 161 156 145 135 131 140 138 137 136 151 158
316 315 314 313 313 313 312 309 305 299 296 295 295 297 295 292 283 257 254 224 215 208 207 204 201 199 206 201 197 202 219 205 205 176 162 162 155 148 139 156 157 151 145 153 159
315 314 313 311 310 310 309 308 307 305 297 292 290 290 290 278 270 242 237 228 212 209 202 202 200 201 208 208 211 219 225 224 207 186 173 174 161 166 167 150 161 157 155 158 163
313 313 312 312 309 307 306 306 305 302 300 296 289 283 279 266 256 262 250 235 218 208 207 202 200 203 208 213 210 220 236 229 225 196 186 169 175 168 186 167 164 160 160 163 165
313 311 309 309 309 309 306 303 301 300 297 293 290 281 268 263 255 244 239 229 217 208 206 203 205 207 215 213 209 210 231 236 202 172 172 170 168 167 175 164 158 163 167 169 170
310 309 308 307 306 307 306 305 300 297 294 290 284 281 269 260 253 248 243 236 218 210 204 202 207 205 209 210 213 209 212 191 174 174 169 161 162 189 163 167 166 169 172 175 178
310 307 306 305 305 304 303 302 300 297 290 286 280 279 273 264 252 247 234 227 217 211 205 199 201 204 208 205 204 205 201 190 188 178 171 176 188 182 170 174 176 176 179 182 184
311 307 305 304 303 303 302 300 296 292 289 283 282 278 275 267 245 234 227 219 212 209 204 201 206 208 205 205 202 206 204 199 182 186 173 183 178 179 179 183 185 187 187 190 190
312 310 306 304 303 302 301 296 290 288 284 284 282 275 264 257 247 242 228 214 212 204 201 203 205 206 205 203 205 199 203 196 187 185 187 192 197 164 177 183 192 193 195 196 198
311 310 307 305 303 301 297 290 287 284 280 276 277 276 269 261 258 241 224 217 212 210 208 208 208 207 202 204 208 207 205 197 195 192 198 210 220 213 195 199 199 202 203 204 207
310 308 306 304 304 297 290 288 286 287 288 278 275 271 269 264 256 239 226 223 216 214 211 213 217 210 208 209 207 208 211 211 199 196 204 212 227 228 214 217 212 211 211 213 213
307 307 305 303 300 287 290 281 285 290 285 287 278 269 264 251 253 240 223 221 219 216 215 219 217 211 210 210 210 214 212 210 210 206 215 221 238 231 227 227 224 226 225 221 222
305 304 304 303 287 291 283 273 290 285 283 282 263 264 264 264 263 241 222 220 221 218 216 223 217 213 212 213 209 216 215 218 213 210 226 223 243 231 228 229 229 230 228 227 224
302 301 299 295 286 280 277 279 282 276 280 267 256 263 270 262 277 249 222 222 219 216 217 219 214 214 215 213 210 213 212 215 215 216 222 224 237 244 235 237 236 231 231 230 226
298 297 295 286 279 275 274 274 266 264 263 265 254 259 272 266 263 254 225 225 223 220 221 222 217 217 218 216 212 206 205 216 216 220 231 227 230 240 235 241 240 235 230 230 227
295 292 287 276 272 268 270 262 256 254 264 258 253 254 275 269 262 242 226 222 220 218 221 221 222 220 216 214 213 212 208 214 218 222 232 232 234 242 242 247 239 235 232 229 227
294 290 281 271 267 263 258 252 251 256 248 257 258 262 263 270 259 243 231 226 226 221 220 222 222 219 214 216 213 212 214 219 221 226 233 229 229 237 245 253 244 241 240 232 227
293 284 277 270 261 254 249 248 251 249 253 251 256 256 259 256 256 243 236 231 226 221 222 222 226 221 218 215 210 213 221 226 234 236 238 230 238 248 247 248 242 239 233 230 227
288 281 274 268 257 249 249 250 250 248 249 250 251 249 251 248 252 249 236 238 232 226 224 226 230 221 217 219 219 220 217 220 228 233 238 237 240 238 240 245 245 234 235 234 233
284 278 270 263 253 249 250 251 250 249 246 247 248 246 245 244 246 248 248 245 238 228 223 224 226 223 219 221 221 220 221 224 231 234 238 243 243 236 245 246 244 244 244 239 237
280 272 264 256 254 252 251 250 250 248 243 243 244 241 239 240 246 247 244 241 235 221 220 225 227 228 227 222 229 228 226 225 230 228 238 243 239 236 240 242 241 249 250 244 235
278 271 263 255 254 250 253 252 248 244 241 237 236 236 237 238 241 240 239 237 232 236 222 220 229 230 231 229 227 226 226 227 232 237 234 239 242 245 246 243 243 260 244 240 231
274 268 261 255 252 251 252 249 246 244 241 238 236 232 234 236 235 239 235 231 227 229 231 228 232 231 233 231 228 226 227 225 227 233 235 238 243 242 242 244 246 248 244 243 223
268 263 259 256 249 253 248 246 245 240 237 234 232 232 233 237 238 238 238 239 238 240 239 230 240 238 236 234 227 228 227 225 226 231 233 236 237 240 241 241 248 242 239 241 223
265 260 258 255 255 250 244 240 239 238 235 234 232 233 234 233 235 240 236 231 234 231 230 237 240 246 240 235 228 225 226 229 227 227 232 235 235 239 239 244 244 235 230 230 220
261 258 256 252 250 247 241 240 236 240 236 234 238 237 236 239 238 241 237 235 232 229 231 230 236 258 245 233 230 230 224 225 228 225 227 230 233 237 239 241 236 235 229 223 225